Header for Extended Forecast Station List Page

Search by: ID | Name | Date | Parm | Value | Avg | % Avg
Sort by: ID | Name | Date | Parm | Value | Avg | % Avg

Enter search or view all records.

Click on id for station plot
#IDNameDateParmValueAvg% Avg
0ABOM8CLARK FORK-ABOVE MISSOULA05-21-2018DISCHARGE (KAF)17851081165
1AFRI1SNAKE-AMERICAN FALLS RESERVOIR05-21-2018INFLOW (KAF)21071802117
2ALFW1PEND OREILLE-ALBENI FALLS DAM05-21-2018INFLOW (KAF)100858175123
3ALPW4SNAKE-NEAR ALPINE05-21-2018DISCHARGE (KAF)24742024122
4ANAW1SNAKE-NEAR ANATONE05-21-2018DISCHARGE (KAF)8615942391
5ANTI1HENRYS FORK-AT ST. ANTHONY05-21-2018DISCHARGE (KAF)41147387
6ARAI1SF BOISE-ANDERSON RANCH DAM05-21-2018INFLOW (KAF)17830658
7ARDW1ENTIAT-NEAR ARDENVOIR05-21-2018DISCHARGE (KAF)14515792
8BELM8CLARK FORK-BELOW MISSOULA05-21-2018DISCHARGE (KAF)29482065143
9BERO3MALHEUR-AGENCY VALLEY DAM05-21-2018INFLOW (KAF)141597
10BFEI1KOOTENAI-AT BONNERS FERRY05-21-2018STAGE (FT)MMM
11BFTI1SNAKE-NEAR BLACKFOOT05-21-2018DISCHARGE (KAF)15561186131
12BIGI1BOISE-AT GLENWOOD BRIDGE05-21-2018DISCHARGE (KAF)516330156
13BITM8BITTERROOT-NEAR MISSOULA05-21-2018DISCHARGE (KAF)1152944122
14BONM8BLACKFOOT-NEAR BONNER05-21-2018DISCHARGE (KAF)945600158
15BONO3COLUMBIA-BONNEVILLE DAM05-21-2018INFLOW (KAF)5550350613110
16BRNI1SNAKE-BROWNLEE DAM05-21-2018INFLOW (KAF)3709374699
17BUDW1BUMPING-BUMPING LAKE DAM05-21-2018INFLOW (KAF)598073
18BULO3BULLY CREEK-BULLY CREEK DAM05-21-2018INFLOW (KAF)000
19CABI1CLARK FORK-CABINET GORGE DAM05-21-2018INFLOW (KAF)93937303129
20CFMM8FLATHEAD-AT COLUMBIA FALLS05-21-2018DISCHARGE (KAF)36083197113
21CHDW1CHELAN-LAKE CHELAN DAM05-21-2018INFLOW (KAF)75881094
22CHEI1FALL RIVER-NEAR CHESTER05-21-2018DISCHARGE (KAF)22022399
23CHJW1COLUMBIA-CHIEF JOSEPH DAM05-21-2018INFLOW (KAF)3437229067118
24CIBW1COLUMBIA-AT INTL BOUNDARY05-21-2018DISCHARGE (KAF)35772MM
25CLFW1NACHES-NEAR CLIFFDEL05-21-2018DISCHARGE (KAF)18623978
26CLUW1CLE ELUM-CLE ELUM LAKE05-21-2018INFLOW (KAF)19225376
27COEI1COEUR D ALENE-COEUR D ALENE LAKE05-21-2018INFLOW (KAF)1011102099
28CSDI1NF PAYETTE-CASCADE DAM05-21-2018INFLOW (KAF)18230859
29DEDI1DEADWOOD-NEAR LOWMAN05-21-2018INFLOW (KAF)599661
30DLGM8CLARK FORK-AT DEER LODGE05-21-2018DISCHARGE (KAF)13059222
31DRMM8CLARK FORK-NR DRUMMOND05-21-2018DISCHARGE (KAF)380MM
32DWRI1NF CLEARWATER-DWORSHAK DAM05-21-2018INFLOW (KAF)15021463103
33EASW1YAKIMA-AT EASTON05-21-2018DISCHARGE (KAF)648576
34EMMI1PAYETTE-NEAR EMMETT05-21-2018DISCHARGE (KAF)67386678
35FCFM8NF FLATHEAD-NEAR COLUMBIA FALLS05-21-2018DISCHARGE (KAF)1215123998
36GCDW1COLUMBIA-GRAND COULEE DAM05-21-2018INFLOW (KAF)383773860499
37GIBO3UMATILLA-NEAR GIBBON05-21-2018DISCHARGE (KAF)192478
38HALI1BIG WOOD-AT HAILEY05-21-2018DISCHARGE (KAF)16418390
39HEII1SNAKE-NEAR HEISE05-21-2018DISCHARGE (KAF)32372921111
40HHWM8SF FLATHEAD-HUNGRY HORSE DAM05-21-2018INFLOW (KAF)17251344128
41HODO3HOOD-NEAR TUCKER BRIDGE05-21-2018DISCHARGE (KAF)10713082
42HOPI1PEND OREILLE-PEND OREILLE LAKE NR HOPE05-21-2018LAKE ELEVATION (FT)MMM
43HOTI1BRUNEAU-NEAR HOT SPRINGS05-21-2018DISCHARGE (KAF)5310053
44HWRI1BIG LOST-AT HOWELL RANCH NEAR CHILLY05-21-2018DISCHARGE (KAF)11114377
45IHDW1SNAKE-ICE HARBOR DAM05-21-2018INFLOW (KAF)1385313642102
46IPDI1HENRYS FORK-ISLAND PARK DAM05-21-2018INFLOW (KAF)18218698
47JDAO3COLUMBIA-JOHN DAY DAM05-21-2018INFLOW (KAF)547795513399
48JKSW4SNAKE-NEAR JACKSON05-21-2018DISCHARGE (KAF)21311638130
49JLKW4SNAKE-JACKSON LAKE AT DAM05-21-2018INFLOW (KAF)62066693
50KADW1KACHESS-KACHESS DAM05-21-2018INFLOW (KAF)425675
51KEDW1YAKIMA-KEECHELUS LAKE05-21-2018INFLOW (KAF)476375
52KERM8FLATHEAD-KERR DAM05-21-2018INFLOW (KAF)44153966111
53KIOW1YAKIMA-AT KIONA05-21-2018DISCHARGE (KAF)52059288
54LAUW1KETTLE-AT LAURIER05-21-2018DISCHARGE (KAF)1037106697
55LEOI1KOOTENAI-AT LEONIA05-21-2018DISCHARGE (KAF)4461462496
56LGDW1SNAKE-LOWER GRANITE DAM05-21-2018INFLOW (KAF)1383413646101
57LGSW1SNAKE-LITTLE GOOSE DAM05-21-2018INFLOW (KAF)1381913651101
58LLKW1SPOKANE-AT LONGLAKE05-21-2018INFLOW (KAF)1403150193
59LMNW1SNAKE-LOWER MONUMENTAL DAM05-21-2018INFLOW (KAF)1385313685101
60LUCI1BOISE-LUCKY PEAK DAM05-21-2018INFLOW (KAF)1111MM
61LWRI1LITTLE WOOD-LITTLE WOOD DAM05-21-2018INFLOW (KAF)284563
62LYDM8KOOTENAI-LIBBY DAM05-21-2018INFLOW (KAF)52115208100
63MACI1BIG LOST-MACKAY RESERVOIR NEAR MACKAY05-21-2018INFLOW (KAF)10214272
64MAGI1BIG WOOD-MAGIC DAM05-21-2018INFLOW (KAF)10613181
65MCDW1COLUMBIA-MCNARY DAM05-21-2018INFLOW (KAF)5391154090100
66MILI1SNAKE-AT MILNER05-21-2018DISCHARGE (KAF)424118360
67MODO3DESCHUTES-AT MOODY NR BIGGS05-21-2018DISCHARGE (KAF)1061114693
68MONO3NF JOHN DAY-AT MONUMENT05-21-2018DISCHARGE (KAF)8520142
69MYKO3MCKAY CREEK-NEAR PILOT ROCK05-21-2018DISCHARGE (KAF)1254
70NACW1NACHES-NEAR NACHES05-21-2018DISCHARGE (KAF)25735373
71NOXM8CLARK FORK-NOXON RAPIDS DAM05-21-2018INFLOW (KAF)85666847125
72ORFI1CLEARWATER-AT OROFINO05-21-2018DISCHARGE (KAF)31102780112
73OWYO3OWYHEE-OWYHEE DAM05-21-2018INFLOW (KAF)509851
74PARI1BOISE-NEAR PARMA05-21-2018DISCHARGE (KAF)493296167
75PARW1YAKIMA-NEAR PARKER05-21-2018DISCHARGE (KAF)20025778
76PATW1METHOW-NEAR PATEROS05-21-2018DISCHARGE (KAF)753637118
77PDTO3UMATILLA-AT PENDLETON05-21-2018DISCHARGE (KAF)243470
78PESW1WENATCHEE-AT PESHASTIN05-21-2018DISCHARGE (KAF)868105183
79PIHI1PORTNEUF-AT POCATELLO05-21-2018DISCHARGE (KAF)3735107
80PITW1KLICKITAT-NEAR PITT05-21-2018DISCHARGE (KAF)25531182
81PLDI1SF SNAKE-PALISADES DAM05-21-2018INFLOW (KAF)31312757114
82PRTI1PRIEST-NEAR PRIEST RIVER05-21-2018DISCHARGE (KAF)521479109
83PRWW1COLUMBIA-PRIEST RAPIDS DAM05-21-2018INFLOW (KAF)3931439242100
84RCCM8ROCK CREEK-NEAR CLINTON05-21-2018DISCHARGE (KAF)374213176
85REXI1HENRYS FORK-AT REXBURG05-21-2018DISCHARGE (KAF)50855791
86RIDI1WILLOW CREEK-RIRIE DAM05-21-2018INFLOW (KAF)1615102
87RILW1TIETON-RIMROCK LAKE NEAR RIMROCK05-21-2018INFLOW (KAF)14015094
88RRHW1COLUMBIA-ROCKY REACH DAM05-21-2018INFLOW (KAF)3801731807120
89SATI1ST MARIES-NEAR SANTA05-21-2018DISCHARGE (KAF)474996
90SERO3JOHN DAY-AT SERVICE CK05-21-2018DISCHARGE (KAF)9927935
91SHYI1SNAKE-NEAR SHELLEY05-21-2018DISCHARGE (KAF)21661829118
92SIFI1SNAKE-AB EAGLE ROCK NR IDAHO FALLS05-21-2018DISCHARGE (KAF)24012152112
93SJMI1ST JOE-AT ST MARIES05-21-2018STAGE (FT)MMM
94SNAI1SNAKE-AT BLACKFOOT05-21-2018DISCHARGE (KAF)15761299121
95SPDI1CLEARWATER-AT SPALDING05-21-2018DISCHARGE (KAF)52104122126
96SPOW1SPOKANE-AT SPOKANE05-21-2018DISCHARGE (KAF)1191MM
97SRGM8CLARK FORK-AT ST REGIS05-21-2018DISCHARGE (KAF)35912697133
98STRM8ST. REGIS-NEAR ST. REGIS05-21-2018DISCHARGE (KAF)140130107
99SWAI1SNAKE-BELOW SWAN FALLS05-21-2018DISCHARGE (KAF)20282003101
100TCHW1WALLA WALLA-NEAR TOUCHET05-21-2018DISCHARGE (KAF)3425138
101TDAO3COLUMBIA-THE DALLES DAM05-21-2018INFLOW (KAF)5507249474111
102TEAI1TETON-NEAR ST. ANTHONY05-21-2018DISCHARGE (KAF)340314108
103TNAW1TEANAWAY-BELOW FORKS05-21-2018DISCHARGE (KAF)324275
104TONW1OKANOGAN-NEAR TONASKET05-21-2018DISCHARGE (KAF)15641138137
105TRYO3GRANDE RONDE-TROY05-21-2018DISCHARGE (KAF)44666867
106UMAO3UMATILLA-NEAR UMATILLA05-21-2018DISCHARGE (KAF)136228
107UMTW1YAKIMA-AT UMTANUM05-21-2018DISCHARGE (KAF)77178998
108UNDW1WHITE SALMON-NEAR UNDERWOOD05-21-2018DISCHARGE (KAF)20222490
109VALO3MALHEUR-NEAR VALE05-21-2018DISCHARGE (KAF)113234
110WANW1COLUMBIA-WANAPUM DAM05-21-2018INFLOW (KAF)3929038405102
111WEII1SNAKE-AT WEISER05-21-2018DISCHARGE (KAF)35213533100
112WELW1COLUMBIA-WELLS DAM05-21-2018INFLOW (KAF)3666831161118
113WGCM8MF FLATHEAD-NEAR WEST GLACIER05-21-2018DISCHARGE (KAF)11901191100
114WHBI1SALMON-AT WHITEBIRD05-21-2018DISCHARGE (KAF)4367454496
115WRMO3MALHEUR-WARM SPRINGS DAM05-21-2018INFLOW (KAF)2630
116WSRI1WEISER-NEAR WEISER05-21-2018DISCHARGE (KAF)9516358